Location: Chandolas
(44.4033°N, 4.2533°E)
Time: 15:12:02
(UTC+00:00)

Cosmos 1743 Rocket - Pass Details

Date: 15 November 2019
Orbit: 604 x 633 km, 82.6° (Epoch: 08 December)

Event Time Altitude Azimuth Distance (km) Brightness Sun altitude
Rises 05:33:12 0° 177° (S) 2,861 7.2 -11.8°
Reaches altitude 10° 05:35:26 10° 174° (S) 1,958 6.4 -11.4°
Maximum altitude 05:39:41 59° 95° (E) 702 4.2 -10.7°
Drops below altitude 10° 05:43:58 10° 16° (NNE) 1,964 6.1 -9.9°
Sets 05:46:12 0° 13° (NNE) 2,871 6.9 -9.5°
